User: anonymous   Login
Location: Caltech
(34.1382°N, 118.1253°W)
Time: 05:56:41
(UTC-07:00)
Language:

Spot 4 Rocket - Orbit

View from above orbital plane
View from above orbital plane
View from above satellite
View from above satellite

Ground track
Ground track

The orbit data is extracted from the following two-line orbital elements,

1 25261U 98017B   14302.79958781  .00000538  00000-0  21197-3 0  7149
2 25261 098.4249 252.8558 0004423 070.5571 344.0913 14.33043291867293
Epoch (UTC): 29 October 2014 19:11:24
Eccentricity: 0.0004423
inclination: 98.4249°
perigee height: 778 km
apogee height: 785 km
right ascension of ascending node: 252.8558°
argument of perigee: 70.5571°
revolutions per day: 14.33043291
mean anomaly at epoch: 344.0913°
orbit number at epoch: 86729

The dashed part of the orbit path shows where the satellite is in the earth's shadow,  

DLR